Time,TemperatureF,DewpointF,PressureIn,WindDirection,WindDirectionDegrees,WindSpeedMPH,WindSpeedGustMPH,Humidity,HourlyPrecipIn,Conditions,Clouds,dailyrainin,SoftwareType,DateUTC
2013-02-22 00:05:00,69.8,66.7,30.05,SSE,161,2.0,4.0,90,0.00,,,0.00,Wunderground v.1.15,2013-02-22 05:05:00,
2013-02-22 00:06:00,69.8,66.7,30.05,South,171,2.0,4.0,90,0.00,,,0.00,Wunderground v.1.15,2013-02-22 05:06:00,
2013-02-22 00:08:00,69.8,66.7,30.05,South,171,2.0,4.0,90,0.00,,,0.00,Wunderground v.1.15,2013-02-22 05:08:00,
2013-02-22 00:14:00,69.7,66.6,30.04,South,175,3.0,5.0,90,0.00,,,0.00,Wunderground v.1.15,2013-02-22 05:14:00,
2013-02-22 00:19:00,69.6,66.5,30.05,West,281,2.0,5.0,90,0.00,,,0.00,Wunderground v.1.15,2013-02-22 05:19:00,
2013-02-22 00:24:00,69.6,66.5,30.05,SSW,197,2.0,6.0,90,0.00,,,0.00,Wunderground v.1.15,2013-02-22 05:24:00,
2013-02-22 00:34:00,69.4,66.3,30.04,SSE,149,2.0,2.0,90,0.00,,,0.00,Wunderground v.1.15,2013-02-22 05:34:00,
2013-02-22 00:44:00,69.2,66.5,30.04,South,177,1.0,1.0,91,0.00,,,0.00,Wunderground v.1.15,2013-02-22 05:44:00,
2013-02-22 00:49:00,69.1,66.4,30.04,South,177,1.0,2.0,91,0.00,,,0.00,Wunderground v.1.15,2013-02-22 05:49:00,
2013-02-22 00:59:00,68.9,66.2,30.04,SE,144,1.0,2.0,91,0.00,,,0.00,Wunderground v.1.15,2013-02-22 05:59:00,
2013-02-22 01:04:00,68.9,66.2,30.04,SSE,161,1.0,1.0,91,0.00,,,0.00,Wunderground v.1.15,2013-02-22 06:04:00,
2013-02-22 01:09:00,68.9,65.8,30.05,SSE,161,1.0,3.0,90,0.00,,,0.00,Wunderground v.1.15,2013-02-22 06:09:00,
2013-02-22 01:19:00,68.9,66.2,30.04,South,173,1.0,1.0,91,0.00,,,0.00,Wunderground v.1.15,2013-02-22 06:19:00,
2013-02-22 01:24:00,68.9,66.2,30.04,South,171,0.0,0.0,91,0.00,,,0.00,Wunderground v.1.15,2013-02-22 06:24:00,
2013-02-22 01:29:00,68.9,65.8,30.04,South,169,1.0,1.0,90,0.00,,,0.00,Wunderground v.1.15,2013-02-22 06:29:00,
2013-02-22 01:40:00,68.7,66.0,30.04,South,169,1.0,1.0,91,0.00,,,0.00,Wunderground v.1.15,2013-02-22 06:40:00,
2013-02-22 01:49:00,68.6,65.9,30.04,South,169,0.0,1.0,91,0.00,,,0.00,Wunderground v.1.15,2013-02-22 06:49:00,
2013-02-22 01:59:00,68.4,65.7,30.03,South,169,0.0,0.0,91,0.00,,,0.00,Wunderground v.1.15,2013-02-22 06:59:00,
2013-02-22 02:05:00,68.1,65.4,30.04,South,169,0.0,0.0,91,0.00,,,0.00,Wunderground v.1.15,2013-02-22 07:05:00,
2013-02-22 02:14:00,67.9,65.2,30.04,South,169,0.0,0.0,91,0.00,,,0.00,Wunderground v.1.15,2013-02-22 07:14:00,
2013-02-22 02:19:00,67.7,65.0,30.04,South,169,0.0,0.0,91,0.00,,,0.00,Wunderground v.1.15,2013-02-22 07:19:00,
2013-02-22 02:29:00,67.2,64.5,30.03,South,169,0.0,0.0,91,0.00,,,0.00,Wunderground v.1.15,2013-02-22 07:29:00,
2013-02-22 02:39:00,66.7,64.0,30.03,South,169,0.0,0.0,91,0.00,,,0.00,Wunderground v.1.15,2013-02-22 07:39:00,
2013-02-22 02:44:00,66.4,64.0,30.04,South,169,0.0,0.0,92,0.00,,,0.00,Wunderground v.1.15,2013-02-22 07:44:00,
2013-02-22 02:54:00,66.2,63.5,30.03,South,169,0.0,0.0,91,0.00,,,0.00,Wunderground v.1.15,2013-02-22 07:54:00,
2013-02-22 02:59:00,65.8,63.4,30.03,South,169,0.0,0.0,92,0.00,,,0.00,Wunderground v.1.15,2013-02-22 07:59:00,
2013-02-22 03:04:00,65.1,62.7,30.03,South,169,0.0,0.0,92,0.00,,,0.00,Wunderground v.1.15,2013-02-22 08:04:00,
2013-02-22 03:14:00,65.0,62.6,30.03,South,169,0.0,0.0,92,0.00,,,0.00,Wunderground v.1.15,2013-02-22 08:14:00,
2013-02-22 03:24:00,64.5,62.1,30.02,South,169,0.0,0.0,92,0.00,,,0.00,Wunderground v.1.15,2013-02-22 08:24:00,
2013-02-22 03:29:00,64.3,62.2,30.02,South,169,0.0,0.0,93,0.00,,,0.00,Wunderground v.1.15,2013-02-22 08:29:00,
2013-02-22 03:39:00,64.2,61.8,30.02,South,169,0.0,0.0,92,0.00,,,0.00,Wunderground v.1.15,2013-02-22 08:39:00,
2013-02-22 03:55:00,63.6,61.2,30.02,South,169,0.0,0.0,92,0.00,,,0.00,Wunderground v.1.15,2013-02-22 08:55:00,
2013-02-22 04:03:00,63.5,61.1,30.02,South,169,0.0,0.0,92,0.00,,,0.00,Wunderground v.1.15,2013-02-22 09:03:00,
2013-02-22 04:08:00,63.3,61.2,30.02,South,169,0.0,0.0,93,0.00,,,0.00,Wunderground v.1.15,2013-02-22 09:08:00,
2013-02-22 04:14:00,63.1,61.0,30.02,South,169,0.0,0.0,93,0.00,,,0.00,Wunderground v.1.15,2013-02-22 09:14:00,
2013-02-22 04:29:00,63.2,61.1,30.03,South,169,0.0,0.0,93,0.00,,,0.00,Wunderground v.1.15,2013-02-22 09:29:00,
2013-02-22 04:38:00,63.2,61.1,30.03,South,169,0.0,0.0,93,0.00,,,0.00,Wunderground v.1.15,2013-02-22 09:38:00,
2013-02-22 04:43:00,63.1,61.0,30.04,South,169,0.0,0.0,93,0.00,,,0.00,Wunderground v.1.15,2013-02-22 09:43:00,
2013-02-22 04:48:00,63.0,60.6,30.04,South,169,0.0,0.0,92,0.00,,,0.00,Wunderground v.1.15,2013-02-22 09:48:00,
2013-02-22 04:53:00,62.9,60.5,30.04,South,169,0.0,0.0,92,0.00,,,0.00,Wunderground v.1.15,2013-02-22 09:53:00,
2013-02-22 04:58:00,62.4,60.3,30.04,South,169,0.0,0.0,93,0.00,,,0.00,Wunderground v.1.15,2013-02-22 09:58:00,
2013-02-22 05:04:00,62.4,60.3,30.04,South,169,0.0,0.0,93,0.00,,,0.00,Wunderground v.1.15,2013-02-22 10:04:00,
2013-02-22 05:13:00,62.2,59.8,30.04,South,169,0.0,0.0,92,0.00,,,0.00,Wunderground v.1.15,2013-02-22 10:13:00,
2013-02-22 05:19:00,61.8,59.8,30.04,South,169,0.0,0.0,93,0.00,,,0.00,Wunderground v.1.15,2013-02-22 10:19:00,
2013-02-22 05:24:00,61.6,59.6,30.05,South,169,0.0,0.0,93,0.00,,,0.00,Wunderground v.1.15,2013-02-22 10:24:00,
2013-02-22 05:29:00,61.5,59.5,30.05,South,169,0.0,0.0,93,0.00,,,0.00,Wunderground v.1.15,2013-02-22 10:29:00,
2013-02-22 05:39:00,61.5,59.5,30.05,South,169,0.0,0.0,93,0.00,,,0.00,Wunderground v.1.15,2013-02-22 10:39:00,
2013-02-22 05:44:00,61.4,59.4,30.05,South,169,0.0,0.0,93,0.00,,,0.00,Wunderground v.1.15,2013-02-22 10:44:00,
2013-02-22 05:49:00,61.2,59.2,30.06,South,169,0.0,0.0,93,0.00,,,0.00,Wunderground v.1.15,2013-02-22 10:49:00,
2013-02-22 05:58:00,61.0,59.0,30.06,South,169,0.0,0.0,93,0.00,,,0.00,Wunderground v.1.15,2013-02-22 10:58:00,
2013-02-22 06:03:00,60.8,58.8,30.06,South,169,0.0,0.0,93,0.00,,,0.00,Wunderground v.1.15,2013-02-22 11:03:00,
2013-02-22 06:09:00,60.7,58.7,30.06,South,169,0.0,0.0,93,0.00,,,0.00,Wunderground v.1.15,2013-02-22 11:09:00,
2013-02-22 06:14:00,60.7,58.7,30.06,South,169,0.0,0.0,93,0.00,,,0.00,Wunderground v.1.15,2013-02-22 11:14:00,
2013-02-22 06:19:00,60.5,58.5,30.06,South,169,0.0,0.0,93,0.00,,,0.00,Wunderground v.1.15,2013-02-22 11:19:00,
2013-02-22 06:24:00,60.4,58.4,30.06,South,169,0.0,0.0,93,0.00,,,0.00,Wunderground v.1.15,2013-02-22 11:24:00,
2013-02-22 06:33:00,60.2,58.2,30.06,South,169,0.0,0.0,93,0.00,,,0.00,Wunderground v.1.15,2013-02-22 11:33:00,
2013-02-22 06:39:00,60.0,58.0,30.07,South,169,0.0,0.0,93,0.00,,,0.00,Wunderground v.1.15,2013-02-22 11:39:00,
2013-02-22 06:48:00,59.8,57.8,30.06,South,169,0.0,0.0,93,0.00,,,0.00,Wunderground v.1.15,2013-02-22 11:48:00,
2013-02-22 06:53:00,59.6,57.6,30.06,South,169,0.0,0.0,93,0.00,,,0.00,Wunderground v.1.15,2013-02-22 11:53:00,
2013-02-22 06:59:00,59.4,57.7,30.07,South,169,0.0,0.0,94,0.00,,,0.00,Wunderground v.1.15,2013-02-22 11:59:00,
2013-02-22 07:08:00,59.6,57.9,30.07,South,169,0.0,0.0,94,0.00,,,0.00,Wunderground v.1.15,2013-02-22 12:08:00,
2013-02-22 07:13:00,59.7,57.7,30.07,South,169,0.0,0.0,93,0.00,,,0.00,Wunderground v.1.15,2013-02-22 12:13:00,
2013-02-22 07:19:00,59.7,57.7,30.07,South,169,0.0,0.0,93,0.00,,,0.00,Wunderground v.1.15,2013-02-22 12:19:00,
2013-02-22 07:28:00,59.8,58.1,30.08,South,169,0.0,0.0,94,0.00,,,0.00,Wunderground v.1.15,2013-02-22 12:28:00,
2013-02-22 07:33:00,60.0,58.3,30.07,South,169,0.0,0.0,94,0.00,,,0.00,Wunderground v.1.15,2013-02-22 12:33:00,
2013-02-22 07:38:00,60.2,58.5,30.08,South,169,0.0,0.0,94,0.00,,,0.00,Wunderground v.1.15,2013-02-22 12:38:00,
2013-02-22 07:44:00,60.6,58.9,30.08,South,169,0.0,0.0,94,0.00,,,0.00,Wunderground v.1.15,2013-02-22 12:44:00,
2013-02-22 07:54:00,61.9,60.5,30.08,South,169,0.0,0.0,95,0.00,,,0.00,Wunderground v.1.15,2013-02-22 12:54:00,
2013-02-22 07:59:00,62.6,61.1,30.08,South,169,0.0,0.0,95,0.00,,,0.00,Wunderground v.1.15,2013-02-22 12:59:00,
2013-02-22 08:08:00,64.2,62.7,30.09,South,169,0.0,0.0,95,0.00,,,0.00,Wunderground v.1.15,2013-02-22 13:08:00,
2013-02-22 08:14:00,65.1,63.6,30.09,South,169,0.0,0.0,95,0.00,,,0.00,Wunderground v.1.15,2013-02-22 13:14:00,
2013-02-22 08:23:00,66.5,65.3,30.09,South,169,0.0,0.0,96,0.00,,,0.00,Wunderground v.1.15,2013-02-22 13:23:00,
2013-02-22 08:29:00,67.3,65.8,30.10,South,169,0.0,0.0,95,0.00,,,0.00,Wunderground v.1.15,2013-02-22 13:29:00,
2013-02-22 08:34:00,67.9,66.4,30.10,South,169,0.0,0.0,95,0.00,,,0.00,Wunderground v.1.15,2013-02-22 13:34:00,
2013-02-22 08:39:00,68.1,66.6,30.10,South,169,0.0,0.0,95,0.00,,,0.00,Wunderground v.1.15,2013-02-22 13:39:00,
2013-02-22 08:44:00,68.5,67.0,30.10,South,169,0.0,0.0,95,0.00,,,0.00,Wunderground v.1.15,2013-02-22 13:44:00,
2013-02-22 08:53:00,69.0,67.2,30.10,South,169,0.0,1.0,94,0.00,,,0.00,Wunderground v.1.15,2013-02-22 13:53:00,
2013-02-22 08:59:00,70.2,67.4,30.10,SE,126,1.0,3.0,91,0.00,,,0.00,Wunderground v.1.15,2013-02-22 13:59:00,
2013-02-22 09:08:00,73.0,69.2,30.10,SSW,193,1.0,5.0,88,0.00,,,0.00,Wunderground v.1.15,2013-02-22 14:08:00,
2013-02-22 09:14:00,73.9,69.8,30.09,SSW,200,2.0,2.0,87,0.00,,,0.00,Wunderground v.1.15,2013-02-22 14:14:00,
2013-02-22 09:19:00,74.3,69.8,30.10,SSE,162,3.0,3.0,86,0.00,,,0.00,Wunderground v.1.15,2013-02-22 14:19:00,
2013-02-22 09:28:00,74.9,70.4,30.09,SSE,152,3.0,5.0,86,0.00,,,0.00,Wunderground v.1.15,2013-02-22 14:28:00,
2013-02-22 09:34:00,75.5,70.3,30.10,SSW,201,4.0,6.0,84,0.00,,,0.00,Wunderground v.1.15,2013-02-22 14:34:00,
2013-02-22 09:39:00,75.9,70.4,30.10,SW,223,4.0,7.0,83,0.00,,,0.00,Wunderground v.1.15,2013-02-22 14:39:00,
2013-02-22 09:49:00,76.4,70.5,30.10,SSE,153,5.0,5.0,82,0.00,,,0.00,Wunderground v.1.15,2013-02-22 14:49:00,
2013-02-22 09:54:00,76.8,70.9,30.10,SSE,164,4.0,5.0,82,0.00,,,0.00,Wunderground v.1.15,2013-02-22 14:54:00,
2013-02-22 10:04:00,77.8,71.1,30.10,ESE,123,4.0,6.0,80,0.00,,,0.00,Wunderground v.1.15,2013-02-22 15:04:00,
2013-02-22 10:09:00,78.1,70.7,30.10,South,181,4.0,7.0,78,0.00,,,0.00,Wunderground v.1.15,2013-02-22 15:09:00,
2013-02-22 10:14:00,77.9,70.9,30.10,South,173,4.0,4.0,79,0.00,,,0.00,Wunderground v.1.15,2013-02-22 15:14:00,
2013-02-22 10:19:00,77.7,70.7,30.10,South,188,4.0,8.0,79,0.00,,,0.00,Wunderground v.1.15,2013-02-22 15:19:00,
2013-02-22 10:24:00,77.4,70.7,30.10,SSE,161,3.0,5.0,80,0.00,,,0.00,Wunderground v.1.15,2013-02-22 15:24:00,
2013-02-22 10:33:00,78.5,71.1,30.10,East,94,4.0,5.0,78,0.00,,,0.00,Wunderground v.1.15,2013-02-22 15:33:00,
2013-02-22 10:39:00,79.1,71.3,30.09,SE,145,4.0,7.0,77,0.00,,,0.00,Wunderground v.1.15,2013-02-22 15:39:00,
2013-02-22 10:44:00,79.0,70.8,30.09,SSW,211,4.0,4.0,76,0.00,,,0.00,Wunderground v.1.15,2013-02-22 15:44:00,
2013-02-22 10:53:00,78.5,70.7,30.10,SE,133,5.0,9.0,77,0.00,,,0.00,Wunderground v.1.15,2013-02-22 15:53:00,
2013-02-22 10:59:00,78.0,70.2,30.10,ESE,117,5.0,8.0,77,0.00,,,0.00,Wunderground v.1.15,2013-02-22 15:59:00,
2013-02-22 11:09:00,78.3,70.9,30.09,ESE,121,4.0,7.0,78,0.00,,,0.00,Wunderground v.1.15,2013-02-22 16:09:00,
2013-02-22 11:14:00,78.3,70.9,30.09,SSE,158,5.0,6.0,78,0.00,,,0.00,Wunderground v.1.15,2013-02-22 16:14:00,
2013-02-22 11:19:00,77.9,70.5,30.09,ESE,113,5.0,6.0,78,0.00,,,0.00,Wunderground v.1.15,2013-02-22 16:19:00,
2013-02-22 11:24:00,78.3,70.9,30.09,SE,140,5.0,5.0,78,0.00,,,0.00,Wunderground v.1.15,2013-02-22 16:24:00,
2013-02-22 11:29:00,78.9,71.1,30.09,SE,134,4.0,5.0,77,0.00,,,0.00,Wunderground v.1.15,2013-02-22 16:29:00,
2013-02-22 11:38:00,78.4,71.0,30.08,East,89,5.0,6.0,78,0.00,,,0.00,Wunderground v.1.15,2013-02-22 16:38:00,
2013-02-22 11:44:00,78.7,71.3,30.08,ESE,114,5.0,6.0,78,0.00,,,0.00,Wunderground v.1.15,2013-02-22 16:44:00,
2013-02-22 11:49:00,78.6,71.2,30.08,SE,130,6.0,6.0,78,0.00,,,0.00,Wunderground v.1.15,2013-02-22 16:49:00,
2013-02-22 11:54:00,78.5,71.1,30.08,East,90,6.0,6.0,78,0.00,,,0.00,Wunderground v.1.15,2013-02-22 16:54:00,
2013-02-22 11:59:00,78.7,71.3,30.07,ESE,113,6.0,6.0,78,0.00,,,0.00,Wunderground v.1.15,2013-02-22 16:59:00,
2013-02-22 12:04:00,79.3,71.5,30.07,South,175,6.0,11.0,77,0.00,,,0.00,Wunderground v.1.15,2013-02-22 17:04:00,
2013-02-22 12:14:00,79.4,71.2,30.06,ESE,121,7.0,7.0,76,0.00,,,0.00,Wunderground v.1.15,2013-02-22 17:14:00,
2013-02-22 12:23:00,79.4,71.9,30.06,ESE,116,6.0,8.0,78,0.00,,,0.00,Wunderground v.1.15,2013-02-22 17:23:00,
2013-02-22 12:29:00,79.7,71.5,30.06,South,174,6.0,7.0,76,0.00,,,0.00,Wunderground v.1.15,2013-02-22 17:29:00,
2013-02-22 12:39:00,79.6,71.8,30.06,ESE,109,7.0,7.0,77,0.00,,,0.00,Wunderground v.1.15,2013-02-22 17:39:00,
2013-02-22 12:44:00,79.7,71.8,30.06,ESE,109,7.0,7.0,77,0.00,,,0.00,Wunderground v.1.15,2013-02-22 17:44:00,
2013-02-22 12:49:00,80.1,71.8,30.06,SE,134,6.0,7.0,76,0.00,,,0.00,Wunderground v.1.15,2013-02-22 17:49:00,
2013-02-22 12:59:00,80.2,71.9,30.06,ESE,109,4.0,5.0,76,0.00,,,0.00,Wunderground v.1.15,2013-02-22 17:59:00,
2013-02-22 13:04:00,80.3,72.0,30.06,SE,142,5.0,5.0,76,0.00,,,0.00,Wunderground v.1.15,2013-02-22 18:04:00,
2013-02-22 13:09:00,80.0,71.8,30.05,East,101,6.0,10.0,76,0.00,,,0.00,Wunderground v.1.15,2013-02-22 18:09:00,
2013-02-22 13:14:00,79.7,71.5,30.05,East,98,7.0,13.0,76,0.00,,,0.00,Wunderground v.1.15,2013-02-22 18:14:00,
2013-02-22 13:19:00,79.6,71.8,30.05,SSE,158,6.0,13.0,77,0.00,,,0.00,Wunderground v.1.15,2013-02-22 18:19:00,
2013-02-22 13:24:00,79.8,71.9,30.05,ESE,117,6.0,6.0,77,0.00,,,0.00,Wunderground v.1.15,2013-02-22 18:24:00,
2013-02-22 13:29:00,79.9,72.0,30.05,SE,134,6.0,10.0,77,0.00,,,0.00,Wunderground v.1.15,2013-02-22 18:29:00,
2013-02-22 13:34:00,79.8,71.6,30.05,ESE,122,7.0,7.0,76,0.00,,,0.00,Wunderground v.1.15,2013-02-22 18:34:00,
2013-02-22 13:43:00,79.0,71.6,30.04,SSE,167,7.0,7.0,78,0.00,,,0.00,Wunderground v.1.15,2013-02-22 18:43:00,
2013-02-22 13:48:00,78.9,71.5,30.04,South,184,7.0,7.0,78,0.00,,,0.00,Wunderground v.1.15,2013-02-22 18:48:00,
2013-02-22 13:53:00,79.0,71.9,30.04,ESE,102,6.0,7.0,79,0.00,,,0.00,Wunderground v.1.15,2013-02-22 18:53:00,
2013-02-22 13:59:00,79.6,72.1,30.04,ESE,121,6.0,6.0,78,0.00,,,0.00,Wunderground v.1.15,2013-02-22 18:59:00,
2013-02-22 14:04:00,79.8,71.9,30.04,East,96,6.0,6.0,77,0.00,,,0.00,Wunderground v.1.15,2013-02-22 19:04:00,
2013-02-22 14:09:00,79.8,71.9,30.04,SSE,167,6.0,7.0,77,0.00,,,0.00,Wunderground v.1.15,2013-02-22 19:09:00,
2013-02-22 14:19:00,79.2,71.7,30.04,East,86,6.0,6.0,78,0.00,,,0.00,Wunderground v.1.15,2013-02-22 19:19:00,
2013-02-22 14:24:00,79.1,71.6,30.03,SE,126,7.0,7.0,78,0.00,,,0.00,Wunderground v.1.15,2013-02-22 19:24:00,
2013-02-22 14:29:00,79.1,71.6,30.03,East,83,7.0,11.0,78,0.00,,,0.00,Wunderground v.1.15,2013-02-22 19:29:00,
2013-02-22 14:39:00,79.4,71.6,30.03,SE,146,6.0,7.0,77,0.00,,,0.00,Wunderground v.1.15,2013-02-22 19:39:00,
2013-02-22 14:44:00,79.4,71.6,30.03,SSE,163,6.0,6.0,77,0.00,,,0.00,Wunderground v.1.15,2013-02-22 19:44:00,
2013-02-22 14:49:00,79.1,71.3,30.03,SE,142,6.0,8.0,77,0.00,,,0.00,Wunderground v.1.15,2013-02-22 19:49:00,
2013-02-22 14:54:00,78.8,71.7,30.02,SSE,155,5.0,8.0,79,0.00,,,0.00,Wunderground v.1.15,2013-02-22 19:54:00,
2013-02-22 14:59:00,78.7,71.6,30.02,SSE,155,5.0,8.0,79,0.00,,,0.00,Wunderground v.1.15,2013-02-22 19:59:00,
2013-02-22 15:09:00,78.7,71.6,30.02,East,97,6.0,6.0,79,0.00,,,0.00,Wunderground v.1.15,2013-02-22 20:09:00,
2013-02-22 15:13:00,78.5,71.4,30.02,South,185,6.0,6.0,79,0.00,,,0.00,Wunderground v.1.15,2013-02-22 20:13:00,
2013-02-22 15:19:00,78.3,71.2,30.02,East,101,6.0,7.0,79,0.00,,,0.00,Wunderground v.1.15,2013-02-22 20:19:00,
2013-02-22 15:24:00,78.2,71.9,30.02,ESE,112,6.0,6.0,81,0.00,,,0.00,Wunderground v.1.15,2013-02-22 20:24:00,
2013-02-22 15:29:00,78.4,71.7,30.02,SE,137,6.0,6.0,80,0.00,,,0.00,Wunderground v.1.15,2013-02-22 20:29:00,
2013-02-22 15:34:00,78.5,71.8,30.02,SSE,156,6.0,9.0,80,0.00,,,0.00,Wunderground v.1.15,2013-02-22 20:34:00,
2013-02-22 15:39:00,78.2,71.9,30.02,ESE,104,6.0,9.0,81,0.00,,,0.00,Wunderground v.1.15,2013-02-22 20:39:00,
2013-02-22 15:49:00,78.0,72.1,30.02,SSW,192,5.0,6.0,82,0.00,,,0.00,Wunderground v.1.15,2013-02-22 20:49:00,
2013-02-22 15:54:00,78.0,71.7,30.02,SSE,163,5.0,7.0,81,0.00,,,0.00,Wunderground v.1.15,2013-02-22 20:54:00,
2013-02-22 15:59:00,77.8,71.5,30.02,SSE,167,6.0,7.0,81,0.00,,,0.00,Wunderground v.1.15,2013-02-22 20:59:00,
2013-02-22 16:04:00,77.7,71.8,30.01,ESE,106,6.0,6.0,82,0.00,,,0.00,Wunderground v.1.15,2013-02-22 21:04:00,
2013-02-22 16:14:00,77.5,71.6,30.02,ESE,115,5.0,5.0,82,0.00,,,0.00,Wunderground v.1.15,2013-02-22 21:14:00,
2013-02-22 16:19:00,77.4,71.5,30.02,SE,146,5.0,5.0,82,0.00,,,0.00,Wunderground v.1.15,2013-02-22 21:19:00,
2013-02-22 16:24:00,77.3,71.4,30.02,East,84,5.0,5.0,82,0.00,,,0.00,Wunderground v.1.15,2013-02-22 21:24:00,
2013-02-22 16:34:00,76.6,71.0,30.02,South,173,5.0,5.0,83,0.00,,,0.00,Wunderground v.1.15,2013-02-22 21:34:00,
2013-02-22 16:39:00,76.7,71.1,30.02,ESE,103,5.0,5.0,83,0.00,,,0.00,Wunderground v.1.15,2013-02-22 21:39:00,
2013-02-22 16:44:00,76.5,70.9,30.02,SSE,161,5.0,7.0,83,0.00,,,0.00,Wunderground v.1.15,2013-02-22 21:44:00,
2013-02-22 16:54:00,76.0,70.5,30.02,ESE,109,5.0,5.0,83,0.00,,,0.00,Wunderground v.1.15,2013-02-22 21:54:00,
2013-02-22 16:59:00,75.9,70.4,30.02,ESE,115,4.0,5.0,83,0.00,,,0.00,Wunderground v.1.15,2013-02-22 21:59:00,
2013-02-22 17:04:00,75.7,70.5,30.02,South,170,4.0,7.0,84,0.00,,,0.00,Wunderground v.1.15,2013-02-22 22:04:00,
2013-02-22 17:14:00,75.1,69.9,30.02,SE,133,5.0,5.0,84,0.00,,,0.00,Wunderground v.1.15,2013-02-22 22:14:00,
2013-02-22 17:19:00,74.8,70.0,30.02,ESE,106,5.0,6.0,85,0.00,,,0.00,Wunderground v.1.15,2013-02-22 22:19:00,
2013-02-22 17:24:00,74.6,69.8,30.02,ESE,102,5.0,5.0,85,0.00,,,0.00,Wunderground v.1.15,2013-02-22 22:24:00,
2013-02-22 17:34:00,74.2,69.7,30.02,ESE,119,5.0,5.0,86,0.00,,,0.00,Wunderground v.1.15,2013-02-22 22:34:00,
2013-02-22 17:39:00,74.0,69.5,30.02,ESE,113,4.0,7.0,86,0.00,,,0.00,Wunderground v.1.15,2013-02-22 22:39:00,
2013-02-22 17:48:00,73.8,69.7,30.02,ESE,119,4.0,6.0,87,0.00,,,0.00,Wunderground v.1.15,2013-02-22 22:48:00,
2013-02-22 17:54:00,73.7,69.6,30.02,SE,128,4.0,4.0,87,0.00,,,0.00,Wunderground v.1.15,2013-02-22 22:54:00,
2013-02-22 18:14:00,73.0,69.6,30.02,ESE,116,4.0,4.0,89,0.00,,,0.00,Wunderground v.1.15,2013-02-22 23:14:00,
2013-02-22 18:24:00,72.7,69.3,30.02,ESE,118,4.0,4.0,89,0.00,,,0.00,Wunderground v.1.15,2013-02-22 23:24:00,
2013-02-22 18:29:00,72.6,69.5,30.02,SE,134,4.0,7.0,90,0.00,,,0.00,Wunderground v.1.15,2013-02-22 23:29:00,
2013-02-22 18:39:00,72.6,69.5,30.03,ESE,109,5.0,5.0,90,0.00,,,0.00,Wunderground v.1.15,2013-02-22 23:39:00,
2013-02-22 18:49:00,72.4,69.3,30.03,ESE,113,3.0,5.0,90,0.00,,,0.00,Wunderground v.1.15,2013-02-22 23:49:00,
2013-02-22 18:54:00,72.4,69.3,30.03,SE,146,4.0,6.0,90,0.00,,,0.00,Wunderground v.1.15,2013-02-22 23:54:00,
2013-02-22 19:04:00,72.4,69.3,30.03,SE,128,5.0,5.0,90,0.00,,,0.00,Wunderground v.1.15,2013-02-23 00:04:00,
2013-02-22 19:14:00,72.6,69.5,30.03,SSE,149,5.0,7.0,90,0.00,,,0.00,Wunderground v.1.15,2013-02-23 00:14:00,
2013-02-22 19:24:00,72.9,69.8,30.04,SE,146,5.0,5.0,90,0.00,,,0.00,Wunderground v.1.15,2013-02-23 00:24:00,
2013-02-22 19:29:00,72.9,69.8,30.04,SSE,155,4.0,7.0,90,0.00,,,0.00,Wunderground v.1.15,2013-02-23 00:29:00,
2013-02-22 19:34:00,73.0,69.6,30.04,SSE,148,4.0,4.0,89,0.00,,,0.00,Wunderground v.1.15,2013-02-23 00:34:00,
2013-02-22 19:39:00,73.1,69.7,30.04,SSE,159,5.0,8.0,89,0.00,,,0.00,Wunderground v.1.15,2013-02-23 00:39:00,
2013-02-22 19:49:00,73.2,69.8,30.04,SSE,153,5.0,5.0,89,0.00,,,0.00,Wunderground v.1.15,2013-02-23 00:49:00,
2013-02-22 19:59:00,73.2,69.8,30.05,ESE,121,5.0,6.0,89,0.00,,,0.00,Wunderground v.1.15,2013-02-23 00:59:00,
2013-02-22 20:09:00,73.2,69.8,30.05,SSE,155,4.0,5.0,89,0.00,,,0.00,Wunderground v.1.15,2013-02-23 01:09:00,
2013-02-22 20:14:00,73.3,69.9,30.05,ESE,103,5.0,5.0,89,0.00,,,0.00,Wunderground v.1.15,2013-02-23 01:14:00,
2013-02-22 20:24:00,73.2,69.8,30.05,South,180,4.0,5.0,89,0.00,,,0.00,Wunderground v.1.15,2013-02-23 01:24:00,
2013-02-22 20:29:00,73.1,69.7,30.05,ESE,123,5.0,6.0,89,0.00,,,0.00,Wunderground v.1.15,2013-02-23 01:29:00,
2013-02-22 20:39:00,72.9,69.8,30.05,SE,140,5.0,5.0,90,0.00,,,0.00,Wunderground v.1.15,2013-02-23 01:39:00,
2013-02-22 20:49:00,72.9,69.8,30.04,South,180,4.0,6.0,90,0.00,,,0.00,Wunderground v.1.15,2013-02-23 01:49:00,
2013-02-22 20:54:00,72.8,69.7,30.05,SSE,160,5.0,6.0,90,0.00,,,0.00,Wunderground v.1.15,2013-02-23 01:54:00,
2013-02-22 20:59:00,72.8,69.7,30.05,SE,136,5.0,6.0,90,0.00,,,0.00,Wunderground v.1.15,2013-02-23 01:59:00,
2013-02-22 21:09:00,72.7,69.6,30.05,SE,136,5.0,6.0,90,0.00,,,0.00,Wunderground v.1.15,2013-02-23 02:09:00,
2013-02-22 21:14:00,72.6,69.5,30.05,South,173,5.0,7.0,90,0.00,,,0.00,Wunderground v.1.15,2013-02-23 02:14:00,
2013-02-22 21:24:00,72.4,69.3,30.05,SSE,168,4.0,4.0,90,0.00,,,0.00,Wunderground v.1.15,2013-02-23 02:24:00,
2013-02-22 21:29:00,72.5,69.4,30.05,SSE,165,4.0,4.0,90,0.00,,,0.00,Wunderground v.1.15,2013-02-23 02:29:00,
2013-02-22 21:34:00,72.6,69.5,30.05,SSE,168,5.0,5.0,90,0.00,,,0.00,Wunderground v.1.15,2013-02-23 02:34:00,
2013-02-22 21:40:00,72.7,69.6,30.06,South,179,5.0,5.0,90,0.00,,,0.00,Wunderground v.1.15,2013-02-23 02:40:00,
2013-02-22 21:49:00,72.6,69.5,30.06,South,180,3.0,5.0,90,0.00,,,0.00,Wunderground v.1.15,2013-02-23 02:49:00,
2013-02-22 21:54:00,72.6,69.5,30.06,South,175,4.0,4.0,90,0.00,,,0.00,Wunderground v.1.15,2013-02-23 02:54:00,
2013-02-22 21:59:00,72.6,69.5,30.06,South,169,4.0,4.0,90,0.00,,,0.00,Wunderground v.1.15,2013-02-23 02:59:00,
2013-02-22 22:04:00,72.5,69.4,30.06,SSW,204,4.0,4.0,90,0.00,,,0.00,Wunderground v.1.15,2013-02-23 03:04:00,
2013-02-22 22:09:00,72.4,69.3,30.06,South,179,4.0,5.0,90,0.00,,,0.00,Wunderground v.1.15,2013-02-23 03:09:00,
2013-02-22 22:20:00,72.3,69.2,30.06,SSE,150,3.0,4.0,90,0.00,,,0.00,Wunderground v.1.15,2013-02-23 03:20:00,
2013-02-22 22:29:00,72.1,69.0,30.06,South,183,3.0,5.0,90,0.00,,,0.00,Wunderground v.1.15,2013-02-23 03:29:00,
2013-02-22 22:34:00,72.0,68.9,30.06,South,183,3.0,3.0,90,0.00,,,0.00,Wunderground v.1.15,2013-02-23 03:34:00,
2013-02-22 22:40:00,71.9,68.8,30.06,South,183,3.0,3.0,90,0.00,,,0.00,Wunderground v.1.15,2013-02-23 03:40:00,
2013-02-22 22:50:00,71.5,68.7,30.05,South,182,2.0,5.0,91,0.00,,,0.00,Wunderground v.1.15,2013-02-23 03:50:00,
2013-02-22 23:00:00,71.3,68.5,30.05,South,182,2.0,4.0,91,0.00,,,0.00,Wunderground v.1.15,2013-02-23 04:00:00,
2013-02-22 23:09:00,71.0,68.2,30.04,SSE,163,2.0,5.0,91,0.00,,,0.00,Wunderground v.1.15,2013-02-23 04:09:00,
2013-02-22 23:15:00,71.0,68.2,30.05,South,171,2.0,6.0,91,0.00,,,0.00,Wunderground v.1.15,2013-02-23 04:15:00,
2013-02-22 23:25:00,71.0,68.2,30.05,SSW,192,3.0,3.0,91,0.00,,,0.00,Wunderground v.1.15,2013-02-23 04:25:00,
2013-02-22 23:34:00,70.9,68.1,30.04,South,189,2.0,6.0,91,0.00,,,0.00,Wunderground v.1.15,2013-02-23 04:34:00,
2013-02-22 23:39:00,70.8,68.0,30.04,SSW,192,3.0,5.0,91,0.00,,,0.00,Wunderground v.1.15,2013-02-23 04:39:00,
2013-02-22 23:45:00,70.8,68.0,30.04,South,190,4.0,5.0,91,0.00,,,0.00,Wunderground v.1.15,2013-02-23 04:45:00,
2013-02-22 23:55:00,70.9,68.1,30.04,SW,219,3.0,6.0,91,0.00,,,0.00,Wunderground v.1.15,2013-02-23 04:55:00,